カタログに戻る

STARLINK-31298

運用中通信VLEO
NORAD 59167·PAYLOAD·🇺🇸 United States

打ち上げ Mar 4, 2024 から Cape Canaveral Space Force Station

Loading…

次のパス (今後24時間)

TLE

最新Source: CelesTrak SupGP

元期: Sep 15, 2026, 03:02 UTC

1 59167C 24044R   26258.12687500  .00049848  00000+0  18057-2 0  2587
2 59167  42.9997 117.1687 0001512 277.7216 228.9922 15.27550832    15

AllMySatでSTARLINK-31298をリアルタイム追跡

Download on the App Store